,,Stat5,,Stat1,,Stat2,,Stat3,,Stat4,,Wind1,,Wind1,
time,status,PA1M_AVG,status,PR1M_SUM,status,RH1M_AVG,status,SR1M_AVG,status,TA1M_AVG,status,W1dAve1m,status,W1sAve1m,
2003-05-25, 00:00:00,VALID,919.895,VALID,0,VALID,93.262,VALID,-0.0339617,VALID,17.7289,VALID,70,VALID,0.103795,
2003-05-25, 00:01:00,VALID,919.9,VALID,0,VALID,93.1361,VALID,-0.0169808,VALID,17.5838,VALID,61,VALID,0.360714,
2003-05-25, 00:02:00,VALID,919.915,VALID,0,VALID,94.0301,VALID,-0.0169808,VALID,17.4969,VALID,45,VALID,0.550987,
2003-05-25, 00:03:00,VALID,919.904,VALID,0,VALID,94.7155,VALID,0,VALID,17.4092,VALID,45,VALID,0.546258,
2003-05-25, 00:04:00,VALID,919.887,VALID,0,VALID,95.3805,VALID,-0.0169808,VALID,17.3608,VALID,45,VALID,0.523638,
2003-05-25, 00:05:00,VALID,919.883,VALID,0,VALID,96.1448,VALID,-0.0339617,VALID,17.3806,VALID,45,VALID,0.538446,
2003-05-25, 00:06:00,VALID,919.876,VALID,0,VALID,96.7335,VALID,0,VALID,17.4224,VALID,45,VALID,0.395765,
2003-05-25, 00:07:00,VALID,919.891,VALID,0,VALID,97.335,VALID,-0.0509425,VALID,17.4999,VALID,49,VALID,0.310296,
2003-05-25, 00:08:00,VALID,919.887,VALID,0,VALID,97.3655,VALID,-0.0169808,VALID,17.5548,VALID,77,VALID,0.272035,
2003-05-25, 00:09:00,VALID,919.9,VALID,0,VALID,97.1671,VALID,-0.0679233,VALID,17.5485,VALID,78,VALID,0.0310497,
2003-05-25, 00:10:00,VALID,919.905,VALID,0,VALID,97.2154,VALID,-0.0509425,VALID,17.5617,VALID,86,VALID,0.0974265,
2003-05-25, 00:11:00,VALID,919.901,VALID,0,VALID,96.3558,VALID,0,VALID,17.5027,VALID,86,VALID,0.322368,
2003-05-25, 00:12:00,VALID,919.907,VALID,0,VALID,94.6799,VALID,-0.0339617,VALID,17.3289,VALID,80,VALID,0.450138,
2003-05-25, 00:13:00,VALID,919.909,VALID,0,VALID,94.5667,VALID,-0.0509425,VALID,17.1836,VALID,77,VALID,0.383036,
2003-05-25, 00:14:00,VALID,919.909,VALID,0,VALID,95.1364,VALID,-0.0169808,VALID,17.1089,VALID,77,VALID,0.376172,
2003-05-25, 00:15:00,VALID,919.915,VALID,0,VALID,95.7226,VALID,-0.0339617,VALID,17.0997,VALID,77,VALID,0.457812,
2003-05-25, 00:16:00,VALID,919.917,VALID,0,VALID,95.6704,VALID,0,VALID,17.0513,VALID,77,VALID,0.379136,
2003-05-25, 00:17:00,VALID,919.902,VALID,0,VALID,96.057,VALID,-0.0169808,VALID,17.0058,VALID,77,VALID,0.534745,
2003-05-25, 00:18:00,VALID,919.897,VALID,0,VALID,97.6808,VALID,-0.0509425,VALID,17.0932,VALID,77,VALID,0.65067,
2003-05-25, 00:19:00,VALID,919.896,VALID,0,VALID,98.7554,VALID,0,VALID,17.27,VALID,91,VALID,0.672991,
2003-05-25, 00:20:00,VALID,919.87,VALID,0,VALID,98.7083,VALID,-0.0339617,VALID,17.442,VALID,99,VALID,0.638822,
2003-05-25, 00:21:00,VALID,919.873,VALID,0,VALID,98.1933,VALID,-0.0339617,VALID,17.4876,VALID,102,VALID,0.502528,
2003-05-25, 00:22:00,VALID,919.866,VALID,0,VALID,97.5181,VALID,-0.0169808,VALID,17.4807,VALID,105,VALID,0.439286,
2003-05-25, 00:23:00,VALID,919.857,VALID,0,VALID,97.1748,VALID,-0.0339617,VALID,17.4581,VALID,109,VALID,0.357812,
2003-05-25, 00:24:00,VALID,919.839,VALID,0,VALID,96.9865,VALID,0,VALID,17.4579,VALID,111,VALID,0.0479911,
2003-05-25, 00:25:00,VALID,919.825,VALID,0,VALID,96.7805,VALID,0,VALID,17.4448,VALID,111,VALID,0.0611213,
2003-05-25, 00:26:00,VALID,919.812,VALID,0,VALID,96.5974,VALID,0.101885,VALID,17.4279,VALID,111,VALID,0.264391,
2003-05-25, 00:27:00,VALID,919.819,VALID,0,VALID,96.3978,VALID,0.0679233,VALID,17.4178,VALID,115,VALID,0.320536,
2003-05-25, 00:28:00,VALID,919.803,VALID,0,VALID,96.0863,VALID,0.0509425,VALID,17.3505,VALID,148,VALID,0.500893,
2003-05-25, 00:29:00,VALID,919.812,VALID,0,VALID,96.2643,VALID,0.0679233,VALID,17.3212,VALID,154,VALID,0.66246,
2003-05-25, 00:30:00,VALID,919.801,VALID,0,VALID,96.6381,VALID,0.0679233,VALID,17.3083,VALID,151,VALID,0.819853,
2003-05-25, 00:31:00,VALID,919.789,VALID,0,VALID,97.2472,VALID,0.0509425,VALID,17.3737,VALID,149,VALID,0.822768,
2003-05-25, 00:32:00,VALID,919.788,VALID,0,VALID,97.4736,VALID,0.0679233,VALID,17.4148,VALID,150,VALID,0.750195,
2003-05-25, 00:33:00,VALID,919.753,VALID,0,VALID,97.6719,VALID,0.0509425,VALID,17.4923,VALID,150,VALID,0.909375,
2003-05-25, 00:34:00,VALID,919.73,VALID,0,VALID,97.7012,VALID,0.0509425,VALID,17.5772,VALID,151,VALID,0.896829,
2003-05-25, 00:35:00,VALID,919.708,VALID,0,VALID,97.6249,VALID,0.0339617,VALID,17.6058,VALID,145,VALID,0.790502,
2003-05-25, 00:36:00,VALID,919.697,VALID,0,VALID,97.5537,VALID,0.0679233,VALID,17.6641,VALID,147,VALID,0.741741,
2003-05-25, 00:37:00,VALID,919.686,VALID,0,VALID,97.2816,VALID,0.0509425,VALID,17.6796,VALID,151,VALID,0.510714,
2003-05-25, 00:38:00,VALID,919.684,VALID,0,VALID,96.4932,VALID,0.0509425,VALID,17.6542,VALID,138,VALID,0.178486,
2003-05-25, 00:39:00,VALID,919.676,VALID,0,VALID,95.1313,VALID,0.0169808,VALID,17.496,VALID,138,VALID,0,
2003-05-25, 00:40:00,VALID,919.684,VALID,0,VALID,95.6285,VALID,0,VALID,17.406,VALID,138,VALID,0,
2003-05-25, 00:41:00,VALID,919.686,VALID,0,VALID,96.2592,VALID,-0.0339617,VALID,17.3813,VALID,138,VALID,0.218555,
2003-05-25, 00:42:00,VALID,919.692,VALID,0,VALID,96.956,VALID,-0.0509425,VALID,17.4002,VALID,138,VALID,0.615625,
2003-05-25, 00:43:00,VALID,919.678,VALID,0,VALID,96.7551,VALID,-0.0339617,VALID,17.4004,VALID,144,VALID,0.712316,
2003-05-25, 00:44:00,VALID,919.66,VALID,0,VALID,97.1875,VALID,-0.0509425,VALID,17.4101,VALID,149,VALID,0.820929,
2003-05-25, 00:45:00,VALID,919.634,VALID,0,VALID,97.6719,VALID,-0.0509425,VALID,17.4715,VALID,153,VALID,0.673214,
2003-05-25, 00:46:00,VALID,919.608,VALID,0,VALID,97.5168,VALID,-0.0509425,VALID,17.5042,VALID,147,VALID,0.514509,
2003-05-25, 00:47:00,VALID,919.584,VALID,0,VALID,97.2015,VALID,-0.0509425,VALID,17.4777,VALID,144,VALID,0.326923,
2003-05-25, 00:48:00,VALID,919.551,VALID,0,VALID,97.6783,VALID,-0.0509425,VALID,17.4941,VALID,144,VALID,0.450827,
2003-05-25, 00:49:00,VALID,919.541,VALID,0,VALID,98.0305,VALID,-0.0679233,VALID,17.5619,VALID,144,VALID,0.397545,
2003-05-25, 00:50:00,VALID,919.528,VALID,0,VALID,97.8411,VALID,-0.0509425,VALID,17.5942,VALID,131,VALID,0.42168,
2003-05-25, 00:51:00,VALID,919.536,VALID,0,VALID,97.3833,VALID,-0.0509425,VALID,17.5755,VALID,131,VALID,0.493973,
2003-05-25, 00:52:00,VALID,919.549,VALID,0,VALID,97.143,VALID,-0.0509425,VALID,17.5199,VALID,127,VALID,0.730239,
2003-05-25, 00:53:00,VALID,919.557,VALID,0,VALID,97.6694,VALID,-0.0509425,VALID,17.5365,VALID,129,VALID,0.774054,
2003-05-25, 00:54:00,VALID,919.552,VALID,0,VALID,97.8284,VALID,-0.0509425,VALID,17.575,VALID,129,VALID,0.670313,
2003-05-25, 00:55:00,VALID,919.533,VALID,0,VALID,97.9949,VALID,-0.0169808,VALID,17.6366,VALID,113,VALID,0.620313,
2003-05-25, 00:56:00,VALID,919.519,VALID,0,VALID,97.8474,VALID,0.0169808,VALID,17.6611,VALID,106,VALID,0.680889,
2003-05-25, 00:57:00,VALID,919.496,VALID,0,VALID,97.8284,VALID,0,VALID,17.6904,VALID,120,VALID,0.686351,
2003-05-25, 00:58:00,VALID,919.493,VALID,0,VALID,97.541,VALID,0,VALID,17.6973,VALID,120,VALID,0.367411,
2003-05-25, 00:59:00,VALID,919.479,VALID,0,VALID,97.251,VALID,0.0339617,VALID,17.6717,VALID,142,VALID,0.647852,
2003-05-25, 01:00:00,VALID,919.463,VALID,0,VALID,97.7177,VALID,0.0169808,VALID,17.671,VALID,147,VALID,0.810491,
2003-05-25, 01:01:00,VALID,919.448,VALID,0,VALID,97.8919,VALID,0,VALID,17.7331,VALID,139,VALID,0.783318,
2003-05-25, 01:02:00,VALID,919.426,VALID,0,VALID,97.7025,VALID,0.0169808,VALID,17.7455,VALID,127,VALID,0.660362,
2003-05-25, 01:03:00,VALID,919.395,VALID,0,VALID,97.6808,VALID,0.0339617,VALID,17.7421,VALID,104,VALID,0.715625,
2003-05-25, 01:04:00,VALID,919.369,VALID,0,VALID,97.6999,VALID,0.0169808,VALID,17.7617,VALID,108,VALID,0.877232,
2003-05-25, 01:05:00,VALID,919.347,VALID,0,VALID,97.6872,VALID,0,VALID,17.8037,VALID,117,VALID,0.989784,
2003-05-25, 01:06:00,VALID,919.325,VALID,0,VALID,97.4253,VALID,0,VALID,17.8461,VALID,118,VALID,1.04159,
2003-05-25, 01:07:00,VALID,919.298,VALID,0,VALID,97.2129,VALID,0.0339617,VALID,17.8588,VALID,126,VALID,0.982813,
2003-05-25, 01:08:00,VALID,919.267,VALID,0,VALID,96.9688,VALID,-0.0169808,VALID,17.8616,VALID,133,VALID,0.780273,
2003-05-25, 01:09:00,VALID,919.236,VALID,0,VALID,96.7144,VALID,0,VALID,17.8782,VALID,124,VALID,0.562723,
2003-05-25, 01:10:00,VALID,919.217,VALID,0,VALID,96.7602,VALID,0,VALID,17.8722,VALID,134,VALID,0.786994,
2003-05-25, 01:11:00,VALID,919.211,VALID,0,VALID,96.6699,VALID,0,VALID,17.8814,VALID,138,VALID,0.562911,
2003-05-25, 01:12:00,VALID,919.232,VALID,0,VALID,96.5542,VALID,0.0339617,VALID,17.8685,VALID,129,VALID,0.621652,
2003-05-25, 01:13:00,VALID,919.242,VALID,0,VALID,96.5936,VALID,0.0169808,VALID,17.8618,VALID,119,VALID,0.659152,
2003-05-25, 01:14:00,VALID,919.265,VALID,0,VALID,96.4423,VALID,0,VALID,17.8553,VALID,120,VALID,0.422276,
2003-05-25, 01:15:00,VALID,919.261,VALID,0,VALID,96.4588,VALID,0,VALID,17.8426,VALID,132,VALID,0.59398,
2003-05-25, 01:16:00,VALID,919.266,VALID,0,VALID,96.6292,VALID,0,VALID,17.8394,VALID,140,VALID,0.770089,
2003-05-25, 01:17:00,VALID,919.249,VALID,0,VALID,96.7704,VALID,-0.0169808,VALID,17.8426,VALID,137,VALID,0.871484,
2003-05-25, 01:18:00,VALID,919.215,VALID,0,VALID,96.9242,VALID,0.0169808,VALID,17.8551,VALID,134,VALID,0.811384,
2003-05-25, 01:19:00,VALID,919.178,VALID,0,VALID,96.9865,VALID,0.0169808,VALID,17.8812,VALID,131,VALID,0.627068,
2003-05-25, 01:20:00,VALID,919.145,VALID,0,VALID,96.909,VALID,0,VALID,17.8743,VALID,126,VALID,0.532072,
2003-05-25, 01:21:00,VALID,919.133,VALID,0,VALID,96.7996,VALID,0,VALID,17.8747,VALID,124,VALID,0.403571,
2003-05-25, 01:22:00,VALID,919.132,VALID,0,VALID,96.5555,VALID,0,VALID,17.8422,VALID,129,VALID,0.296652,
2003-05-25, 01:23:00,VALID,919.144,VALID,0,VALID,96.7093,VALID,0,VALID,17.8263,VALID,135,VALID,0.498397,
2003-05-25, 01:24:00,VALID,919.157,VALID,0,VALID,96.7157,VALID,0,VALID,17.7937,VALID,132,VALID,0.329044,
2003-05-25, 01:25:00,VALID,919.159,VALID,0,VALID,96.6865,VALID,0,VALID,17.7903,VALID,122,VALID,0.333929,
2003-05-25, 01:26:00,VALID,919.155,VALID,0,VALID,96.4894,VALID,0.0339617,VALID,17.758,VALID,125,VALID,0.368359,
2003-05-25, 01:27:00,VALID,919.136,VALID,0,VALID,96.4754,VALID,0.0169808,VALID,17.7391,VALID,130,VALID,0.558036,
2003-05-25, 01:28:00,VALID,919.113,VALID,0,VALID,96.6877,VALID,0,VALID,17.7231,VALID,117,VALID,0.366039,
2003-05-25, 01:29:00,VALID,919.086,VALID,0,VALID,96.7984,VALID,0,VALID,17.7331,VALID,93,VALID,0.653783,
2003-05-25, 01:30:00,VALID,919.072,VALID,0,VALID,96.8975,VALID,0.0169808,VALID,17.7391,VALID,80,VALID,0.901339,
2003-05-25, 01:31:00,VALID,919.058,VALID,0,VALID,96.9026,VALID,0.0339617,VALID,17.7614,VALID,84,VALID,0.86317,
2003-05-25, 01:32:00,VALID,919.057,VALID,0,VALID,96.9522,VALID,0.0169808,VALID,17.7776,VALID,109,VALID,0.770633,
2003-05-25, 01:33:00,VALID,919.069,VALID,0,VALID,96.9751,VALID,0.0339617,VALID,17.8164,VALID,118,VALID,0.978401,
2003-05-25, 01:34:00,VALID,919.084,VALID,0,VALID,96.8238,VALID,0.0339617,VALID,17.868,VALID,111,VALID,0.964286,
2003-05-25, 01:35:00,VALID,919.09,VALID,0,VALID,96.5122,VALID,0.0339617,VALID,17.9003,VALID,100,VALID,0.922461,
2003-05-25, 01:36:00,VALID,919.092,VALID,0,VALID,96.319,VALID,0.0339617,VALID,17.9199,VALID,90,VALID,0.939732,
2003-05-25, 01:37:00,VALID,919.098,VALID,0,VALID,95.9375,VALID,0.0339617,VALID,17.9003,VALID,85,VALID,0.971278,
2003-05-25, 01:38:00,VALID,919.11,VALID,0,VALID,95.7925,VALID,0,VALID,17.8489,VALID,79,VALID,1.2095,
2003-05-25, 01:39:00,VALID,919.117,VALID,0,VALID,95.968,VALID,0.0169808,VALID,17.8067,VALID,87,VALID,1.41719,
2003-05-25, 01:40:00,VALID,919.099,VALID,0,VALID,96.3927,VALID,0.0339617,VALID,17.8071,VALID,92,VALID,1.4721,
2003-05-25, 01:41:00,VALID,919.091,VALID,0,VALID,96.5593,VALID,0,VALID,17.8648,VALID,106,VALID,1.35938,
2003-05-25, 01:42:00,VALID,919.085,VALID,0,VALID,96.1727,VALID,0.0169808,VALID,17.952,VALID,107,VALID,1.27619,
2003-05-25, 01:43:00,VALID,919.068,VALID,0,VALID,95.6603,VALID,0.0339617,VALID,18.0168,VALID,95,VALID,0.863393,
2003-05-25, 01:44:00,VALID,919.08,VALID,0,VALID,95.3729,VALID,0.0339617,VALID,18.0364,VALID,96,VALID,0.80293,
2003-05-25, 01:45:00,VALID,919.065,VALID,0,VALID,95.2979,VALID,0.0169808,VALID,18.0332,VALID,101,VALID,1.08214,
2003-05-25, 01:46:00,VALID,919.047,VALID,0,VALID,95.2712,VALID,0.0169808,VALID,18.0198,VALID,97,VALID,1.17969,
2003-05-25, 01:47:00,VALID,919.013,VALID,0,VALID,95.2432,VALID,0.0339617,VALID,17.9776,VALID,108,VALID,1.2942,
2003-05-25, 01:48:00,VALID,918.989,VALID,0,VALID,95.3932,VALID,0.0849042,VALID,17.9587,VALID,102,VALID,1.29442,
2003-05-25, 01:49:00,VALID,918.958,VALID,0,VALID,95.8065,VALID,0.0339617,VALID,17.913,VALID,114,VALID,1.32478,
2003-05-25, 01:50:00,VALID,918.944,VALID,0,VALID,96.0379,VALID,0.0169808,VALID,17.8844,VALID,113,VALID,1.33974,
2003-05-25, 01:51:00,VALID,918.939,VALID,0,VALID,96.0939,VALID,0.0169808,VALID,17.8288,VALID,117,VALID,1.15786,
2003-05-25, 01:52:00,VALID,918.933,VALID,0,VALID,96.5567,VALID,0.0169808,VALID,17.82,VALID,113,VALID,1.45848,
2003-05-25, 01:53:00,VALID,918.921,VALID,0,VALID,96.3736,VALID,0.0509425,VALID,17.8323,VALID,108,VALID,0.894336,
2003-05-25, 01:54:00,VALID,918.907,VALID,0,VALID,96.3291,VALID,0,VALID,17.8357,VALID,113,VALID,0.966964,
2003-05-25, 01:55:00,VALID,918.903,VALID,0,VALID,96.2795,VALID,0,VALID,17.8489,VALID,111,VALID,0.884651,
2003-05-25, 01:56:00,VALID,918.877,VALID,0,VALID,96.3482,VALID,0.0169808,VALID,17.8685,VALID,112,VALID,1.11493,
2003-05-25, 01:57:00,VALID,918.849,VALID,0,VALID,96.5033,VALID,-0.0169808,VALID,17.9005,VALID,103,VALID,1.24621,
2003-05-25, 01:58:00,VALID,918.811,VALID,0,VALID,96.3622,VALID,0,VALID,17.9624,VALID,97,VALID,1.16317,
2003-05-25, 01:59:00,VALID,918.784,VALID,0,VALID,96.1079,VALID,0,VALID,17.9972,VALID,89,VALID,1.19912,
2003-05-25, 02:00:00,VALID,918.764,VALID,0,VALID,95.9934,VALID,0.0169808,VALID,18.0261,VALID,107,VALID,1.3642,
2003-05-25, 02:01:00,VALID,918.746,VALID,0,VALID,95.8485,VALID,0,VALID,18.0978,VALID,109,VALID,1.43571,
2003-05-25, 02:02:00,VALID,918.739,VALID,0,VALID,95.6094,VALID,0.0169808,VALID,18.1589,VALID,114,VALID,1.43203,
2003-05-25, 02:03:00,VALID,918.73,VALID,0,VALID,95.3703,VALID,0,VALID,18.2208,VALID,114,VALID,1.3683,
2003-05-25, 02:04:00,VALID,918.727,VALID,0,VALID,94.9316,VALID,-0.0169808,VALID,18.2817,VALID,119,VALID,0.732537,
2003-05-25, 02:05:00,VALID,918.704,VALID,0,VALID,94.4611,VALID,0,VALID,18.307,VALID,131,VALID,0.866571,
2003-05-25, 02:06:00,VALID,918.704,VALID,0,VALID,94.231,VALID,0,VALID,18.3107,VALID,140,VALID,0.698884,
2003-05-25, 02:07:00,VALID,918.683,VALID,0,VALID,94.3848,VALID,0.0169808,VALID,18.2911,VALID,133,VALID,1.00826,
2003-05-25, 02:08:00,VALID,918.676,VALID,0,VALID,94.3302,VALID,0,VALID,18.3112,VALID,127,VALID,0.723157,
2003-05-25, 02:09:00,VALID,918.678,VALID,0,VALID,94.1496,VALID,0,VALID,18.2782,VALID,133,VALID,0.807904,
2003-05-25, 02:10:00,VALID,918.674,VALID,0,VALID,94.2806,VALID,-0.0169808,VALID,18.2556,VALID,137,VALID,0.863616,
2003-05-25, 02:11:00,VALID,918.669,VALID,0,VALID,94.4497,VALID,0,VALID,18.2623,VALID,142,VALID,0.676562,
2003-05-25, 02:12:00,VALID,918.673,VALID,0,VALID,94.3848,VALID,0,VALID,18.2526,VALID,132,VALID,0.674554,
2003-05-25, 02:13:00,VALID,918.68,VALID,0,VALID,94.3556,VALID,0,VALID,18.2388,VALID,141,VALID,0.671875,
2003-05-25, 02:14:00,VALID,918.656,VALID,0,VALID,94.2412,VALID,0,VALID,18.2233,VALID,128,VALID,0.699424,
2003-05-25, 02:15:00,VALID,918.651,VALID,0,VALID,94.8248,VALID,0,VALID,18.2201,VALID,119,VALID,0.921652,
2003-05-25, 02:16:00,VALID,918.625,VALID,0,VALID,95.0359,VALID,0.0339617,VALID,18.2422,VALID,111,VALID,0.78817,
2003-05-25, 02:17:00,VALID,918.592,VALID,0,VALID,94.9952,VALID,-0.0169808,VALID,18.2752,VALID,104,VALID,0.73117,
2003-05-25, 02:18:00,VALID,918.581,VALID,0,VALID,94.8655,VALID,-0.0169808,VALID,18.2974,VALID,114,VALID,0.823529,
2003-05-25, 02:19:00,VALID,918.557,VALID,0,VALID,94.7053,VALID,0,VALID,18.3135,VALID,109,VALID,0.907812,
2003-05-25, 02:20:00,VALID,918.548,VALID,0,VALID,94.8528,VALID,0,VALID,18.3267,VALID,103,VALID,1.28359,
2003-05-25, 02:21:00,VALID,918.544,VALID,0,VALID,94.395,VALID,0,VALID,18.3654,VALID,94,VALID,1.28996,
2003-05-25, 02:22:00,VALID,918.56,VALID,0,VALID,94.1916,VALID,0,VALID,18.3652,VALID,85,VALID,0.986213,
2003-05-25, 02:23:00,VALID,918.564,VALID,0,VALID,94.1509,VALID,0,VALID,18.3622,VALID,91,VALID,0.88199,
2003-05-25, 02:24:00,VALID,918.564,VALID,0,VALID,94.1127,VALID,0.0169808,VALID,18.3331,VALID,84,VALID,0.767857,
2003-05-25, 02:25:00,VALID,918.565,VALID,0,VALID,94.2679,VALID,0,VALID,18.2879,VALID,81,VALID,0.926339,
2003-05-25, 02:26:00,VALID,918.564,VALID,0,VALID,94.2628,VALID,-0.101885,VALID,18.2632,VALID,78,VALID,0.992989,
2003-05-25, 02:27:00,VALID,918.559,VALID,0,VALID,93.8114,VALID,-0.101885,VALID,18.2051,VALID,73,VALID,1.07008,
2003-05-25, 02:28:00,VALID,918.566,VALID,0,VALID,94.3162,VALID,-0.0849042,VALID,18.1405,VALID,81,VALID,1.18638,
2003-05-25, 02:29:00,VALID,918.574,VALID,0,VALID,95.186,VALID,-0.101885,VALID,18.1176,VALID,93,VALID,1.20332,
2003-05-25, 02:30:00,VALID,918.576,VALID,0,VALID,95.645,VALID,-0.101885,VALID,18.1601,VALID,106,VALID,1.26317,
2003-05-25, 02:31:00,VALID,918.587,VALID,0,VALID,95.3513,VALID,-0.0849042,VALID,18.2014,VALID,114,VALID,1.11397,
2003-05-25, 02:32:00,VALID,918.571,VALID,0,VALID,95.1402,VALID,-0.101885,VALID,18.2212,VALID,117,VALID,1.38754,
2003-05-25, 02:33:00,VALID,918.554,VALID,0,VALID,94.9062,VALID,-0.0849042,VALID,18.2244,VALID,124,VALID,1.26473,
2003-05-25, 02:34:00,VALID,918.505,VALID,0,VALID,94.9825,VALID,-0.101885,VALID,18.2217,VALID,110,VALID,1.32879,
2003-05-25, 02:35:00,VALID,918.473,VALID,0,VALID,94.6532,VALID,-0.0849042,VALID,18.2115,VALID,98,VALID,0.952524,
2003-05-25, 02:36:00,VALID,918.444,VALID,0,VALID,94.5769,VALID,-0.0849042,VALID,18.1894,VALID,84,VALID,0.921875,
2003-05-25, 02:37:00,VALID,918.42,VALID,0,VALID,93.5481,VALID,-0.101885,VALID,18.0957,VALID,69,VALID,0.798214,
2003-05-25, 02:38:00,VALID,918.397,VALID,0,VALID,94.3111,VALID,-0.101885,VALID,18.0048,VALID,73,VALID,0.974805,
2003-05-25, 02:39:00,VALID,918.383,VALID,0,VALID,95.1885,VALID,-0.101885,VALID,17.9921,VALID,89,VALID,0.931027,
2003-05-25, 02:40:00,VALID,918.38,VALID,0,VALID,95.6933,VALID,-0.0679233,VALID,17.9921,VALID,98,VALID,1.04389,
2003-05-25, 02:41:00,VALID,918.367,VALID,0,VALID,95.9693,VALID,0.0169808,VALID,18.0166,VALID,109,VALID,0.716488,
2003-05-25, 02:42:00,VALID,918.364,VALID,0,VALID,95.5751,VALID,0,VALID,18.0297,VALID,103,VALID,0.663839,
2003-05-25, 02:43:00,VALID,918.36,VALID,0,VALID,95.0626,VALID,0.0339617,VALID,18.0002,VALID,82,VALID,0.534821,
2003-05-25, 02:44:00,VALID,918.358,VALID,0,VALID,94.9316,VALID,0,VALID,17.9423,VALID,108,VALID,0.436899,
2003-05-25, 02:45:00,VALID,918.341,VALID,0,VALID,95.2101,VALID,0,VALID,17.8874,VALID,92,VALID,0.664522,
2003-05-25, 02:46:00,VALID,918.345,VALID,0,VALID,94.2501,VALID,0,VALID,17.8034,VALID,95,VALID,0.335268,
2003-05-25, 02:47:00,VALID,918.352,VALID,0,VALID,93.969,VALID,0.0169808,VALID,17.6779,VALID,95,VALID,0.0492188,
2003-05-25, 02:48:00,VALID,918.365,VALID,0,VALID,93.7465,VALID,0,VALID,17.5419,VALID,69,VALID,0.181696,
2003-05-25, 02:49:00,VALID,918.387,VALID,0,VALID,93.8253,VALID,-0.0169808,VALID,17.3834,VALID,25,VALID,0.433364,
2003-05-25, 02:50:00,VALID,918.406,VALID,0,VALID,94.3251,VALID,0,VALID,17.2704,VALID,13,VALID,0.412623,
2003-05-25, 02:51:00,VALID,918.404,VALID,0,VALID,95.9019,VALID,0.0339617,VALID,17.2768,VALID,13,VALID,0.251116,
2003-05-25, 02:52:00,VALID,918.412,VALID,0,VALID,96.9128,VALID,0,VALID,17.3414,VALID,21,VALID,0.31808,
2003-05-25, 02:53:00,VALID,918.393,VALID,0,VALID,96.8823,VALID,0,VALID,17.3711,VALID,83,VALID,0.463341,
2003-05-25, 02:54:00,VALID,918.362,VALID,0,VALID,97.1887,VALID,0,VALID,17.3742,VALID,111,VALID,0.59352,
2003-05-25, 02:55:00,VALID,918.336,VALID,0,VALID,97.2027,VALID,0,VALID,17.3673,VALID,118,VALID,0.449777,
2003-05-25, 02:56:00,VALID,918.33,VALID,0,VALID,97.246,VALID,0.0169808,VALID,17.367,VALID,132,VALID,0.545508,
2003-05-25, 02:57:00,VALID,918.333,VALID,0,VALID,97.0629,VALID,0.0509425,VALID,17.3541,VALID,134,VALID,0.509152,
2003-05-25, 02:58:00,VALID,918.311,VALID,0,VALID,96.9586,VALID,0,VALID,17.3158,VALID,147,VALID,0.576976,
2003-05-25, 02:59:00,VALID,918.312,VALID,0,VALID,97.0298,VALID,0,VALID,17.2867,VALID,144,VALID,0.625617,
2003-05-25, 03:00:00,VALID,918.28,VALID,0,VALID,97.0145,VALID,0.0169808,VALID,17.2609,VALID,136,VALID,0.581473,
2003-05-25, 03:01:00,VALID,918.285,VALID,0,VALID,97.3006,VALID,0.0169808,VALID,17.2478,VALID,128,VALID,0.693304,
2003-05-25, 03:02:00,VALID,918.318,VALID,0,VALID,97.8093,VALID,0.0169808,VALID,17.2768,VALID,119,VALID,0.796274,
2003-05-25, 03:03:00,VALID,918.351,VALID,0,VALID,98.1208,VALID,0,VALID,17.3317,VALID,117,VALID,1.01264,
2003-05-25, 03:04:00,VALID,918.397,VALID,0,VALID,98.5277,VALID,0.0169808,VALID,17.4252,VALID,118,VALID,1.11853,
2003-05-25, 03:05:00,VALID,918.422,VALID,0,VALID,98.4654,VALID,0.0169808,VALID,17.5257,VALID,121,VALID,1.0168,
2003-05-25, 03:06:00,VALID,918.45,VALID,0,VALID,97.8309,VALID,0.0339617,VALID,17.5485,VALID,111,VALID,0.771429,
2003-05-25, 03:07:00,VALID,918.456,VALID,0,VALID,97.3502,VALID,0.0169808,VALID,17.5132,VALID,107,VALID,0.675092,
2003-05-25, 03:08:00,VALID,918.436,VALID,0,VALID,96.9255,VALID,0,VALID,17.4646,VALID,105,VALID,0.494038,
2003-05-25, 03:09:00,VALID,918.435,VALID,0,VALID,95.7734,VALID,0.0339617,VALID,17.3257,VALID,88,VALID,0.410714,
2003-05-25, 03:10:00,VALID,918.411,VALID,0,VALID,94.8782,VALID,0,VALID,17.1255,VALID,87,VALID,0.46183,
2003-05-25, 03:11:00,VALID,918.398,VALID,0,VALID,95.4924,VALID,0,VALID,17.0319,VALID,86,VALID,0.220353,
2003-05-25, 03:12:00,VALID,918.395,VALID,0,VALID,96.1753,VALID,0.0169808,VALID,16.9964,VALID,86,VALID,0.163603,
2003-05-25, 03:13:00,VALID,918.393,VALID,0,VALID,97.2816,VALID,0.0169808,VALID,17.0252,VALID,86,VALID,0.253795,
2003-05-25, 03:14:00,VALID,918.385,VALID,0,VALID,97.307,VALID,0,VALID,17.0739,VALID,86,VALID,0.496094,
2003-05-25, 03:15:00,VALID,918.376,VALID,0,VALID,96.8975,VALID,0,VALID,17.0284,VALID,84,VALID,0.486607,
2003-05-25, 03:16:00,VALID,918.361,VALID,0,VALID,95.4416,VALID,0,VALID,16.8478,VALID,80,VALID,0.475643,
2003-05-25, 03:17:00,VALID,918.349,VALID,0,VALID,95.6158,VALID,0,VALID,16.7092,VALID,77,VALID,0.653166,
2003-05-25, 03:18:00,VALID,918.338,VALID,0,VALID,96.8937,VALID,0.0339617,VALID,16.7187,VALID,73,VALID,0.723884,
2003-05-25, 03:19:00,VALID,918.34,VALID,0,VALID,97.9492,VALID,0,VALID,16.8057,VALID,77,VALID,0.576339,
2003-05-25, 03:20:00,VALID,918.347,VALID,0,VALID,98.7541,VALID,-0.0169808,VALID,16.9417,VALID,92,VALID,0.641426,
2003-05-25, 03:21:00,VALID,918.363,VALID,0,VALID,98.5837,VALID,0,VALID,17.0222,VALID,122,VALID,0.409007,
2003-05-25, 03:22:00,VALID,918.369,VALID,0,VALID,98.2569,VALID,0,VALID,17.0097,VALID,145,VALID,0.526786,
2003-05-25, 03:23:00,VALID,918.378,VALID,0,VALID,98.2276,VALID,0,VALID,17.0325,VALID,148,VALID,0.419727,
2003-05-25, 03:24:00,VALID,918.383,VALID,0,VALID,97.9199,VALID,0.0169808,VALID,16.9998,VALID,146,VALID,0.354018,
2003-05-25, 03:25:00,VALID,918.376,VALID,0,VALID,97.6541,VALID,0,VALID,16.9382,VALID,151,VALID,0.647748,
2003-05-25, 03:26:00,VALID,918.351,VALID,0,VALID,98.0026,VALID,0,VALID,16.9288,VALID,136,VALID,0.766447,
2003-05-25, 03:27:00,VALID,918.326,VALID,0,VALID,98.3344,VALID,0,VALID,16.9837,VALID,126,VALID,0.414063,
2003-05-25, 03:28:00,VALID,918.281,VALID,0,VALID,98.0992,VALID,0.0169808,VALID,16.9933,VALID,122,VALID,0.664063,
2003-05-25, 03:29:00,VALID,918.259,VALID,0,VALID,98.07,VALID,0,VALID,16.9998,VALID,127,VALID,0.554487,
2003-05-25, 03:30:00,VALID,918.248,VALID,0,VALID,98.5621,VALID,0.0169808,VALID,17.0547,VALID,146,VALID,0.842601,
2003-05-25, 03:31:00,VALID,918.235,VALID,0,VALID,98.5697,VALID,0.0169808,VALID,17.1229,VALID,146,VALID,1.01853,
2003-05-25, 03:32:00,VALID,918.227,VALID,0,VALID,98.5481,VALID,-0.0169808,VALID,17.1518,VALID,145,VALID,1.23105,
2003-05-25, 03:33:00,VALID,918.211,VALID,0,VALID,98.3828,VALID,-0.0169808,VALID,17.1455,VALID,132,VALID,0.921652,
2003-05-25, 03:34:00,VALID,918.201,VALID,0,VALID,98.2276,VALID,0,VALID,17.1257,VALID,125,VALID,0.451746,
2003-05-25, 03:35:00,VALID,918.193,VALID,0,VALID,98.3955,VALID,0,VALID,17.1163,VALID,115,VALID,0.576069,
2003-05-25, 03:36:00,VALID,918.197,VALID,0,VALID,98.6193,VALID,0.0169808,VALID,17.1488,VALID,115,VALID,0.651786,